Location: Heidgraben
(53.7081°N, 9.6576°E)
Time: 10:58:50
(UTC+00:00)

MTI - Pass Details

Date: 05 July 2020
Orbit: 393 x 405 km, 97.5° (Epoch: 06 August)

Event Time Altitude Azimuth Distance (km) Brightness Sun altitude
Rises 21:43:56 0° 14° (NNE) 2,322 8.4 -10.5°
Reaches altitude 10° 21:45:55 10° 14° (NNE) 1,456 7.3 -10.6°
Maximum altitude 21:49:02 90° 124° (SE) 404 3.6 -10.8°
Enters shadow 21:51:46 13° 195° (SSW) 1,293 5.8 -10.9°
